Wind_Speed
39 38 36 35 34 33 32 31 30 29 28 27 26 26 25 25 24 24 24 24 24 25 25 25 26 27 27 28 29 29 30 31 31 32 33 34 35 35 35 34 33 33 32
41 40 39 38 36 35 34 33 32 30 29 29 29 29 28 27 27 27 26 27 27 27 28 28 28 29 30 31 31 31 31 32 32 33 35 35 35 35 35 35 34 33 33
43 42 41 39 38 37 36 35 34 32 31 31 31 31 30 30 29 29 29 29 29 30 30 31 31 32 32 32 32 32 32 33 33 35 36 36 36 36 36 35 35 34 34
46 44 42 41 41 40 38 37 36 34 34 34 34 33 33 32 32 31 31 32 32 32 32 33 33 33 33 33 33 33 33 33 34 36 37 36 37 37 36 36 36 36 34
47 45 44 43 43 41 40 39 38 37 37 36 36 35 35 34 34 34 34 34 34 34 34 33 33 33 33 33 34 34 34 35 36 37 37 37 37 38 38 38 37 37 35
50 48 47 45 44 43 42 41 40 39 39 38 38 37 36 36 35 35 35 35 35 35 34 34 34 34 34 34 35 35 35 36 37 37 37 38 39 39 39 39 39 38 36
51 50 48 47 47 45 43 43 41 41 41 40 39 38 38 38 37 37 36 36 35 35 34 34 35 35 35 35 35 35 36 37 37 37 38 40 41 41 41 41 40 39 37
49 49 49 48 47 46 45 44 43 42 42 41 40 40 39 39 38 38 37 36 36 36 36 36 35 35 34 34 35 36 37 38 38 39 40 42 42 42 42 42 42 40 39
47 47 48 47 46 45 45 44 43 42 42 42 41 40 40 40 38 37 37 37 37 37 37 36 36 36 35 36 36 37 38 39 40 41 42 43 44 44 43 43 42 41 39
48 47 47 46 45 45 45 46 45 42 40 41 41 41 41 40 39 38 38 38 38 38 38 37 37 37 37 37 37 38 39 40 42 43 44 45 45 45 44 44 42 41 39
47 47 46 45 44 44 45 45 45 43 42 41 41 40 39 39 40 39 38 38 39 38 37 37 37 37 37 38 39 40 40 42 43 45 46 47 47 46 45 44 42 41 39
45 46 47 46 44 45 45 44 43 43 43 42 40 39 39 40 40 40 40 39 38 37 37 37 37 37 38 38 40 41 42 43 45 46 47 48 48 47 46 44 42 41 39
43 44 45 45 46 46 45 45 44 44 44 43 41 41 41 41 41 40 40 39 39 38 38 38 38 38 39 39 40 42 43 45 46 47 48 48 48 47 45 44 42 40 38
40 40 41 42 43 44 45 45 44 45 45 45 44 44 44 42 41 40 40 40 40 39 38 38 38 39 40 41 42 44 45 46 47 48 48 48 47 46 44 43 41 38 36
39 39 40 42 42 41 42 44 45 44 45 44 44 44 43 42 40 40 40 40 40 39 38 38 38 39 40 41 43 44 46 46 47 47 47 46 46 45 43 42 39 37 35
35 37 40 41 41 42 42 43 43 44 44 44 43 42 42 41 40 41 41 41 40 39 38 38 39 40 41 43 44 45 45 46 46 46 46 46 44 43 41 39 37 36 34
32 34 36 38 39 40 41 42 42 43 44 44 43 43 42 42 41 41 41 40 40 39 39 40 41 42 43 44 44 44 44 45 45 45 45 44 43 41 39 38 36 34 32
34 35 36 37 38 39 41 43 44 44 45 45 45 45 43 41 41 41 41 41 41 41 41 41 42 43 43 43 43 43 44 45 44 44 43 42 42 40 38 36 34 32 30
36 37 38 39 39 40 41 42 42 42 43 43 43 43 41 41 42 42 42 42 42 42 43 43 43 43 43 42 42 43 44 44 43 43 42 41 40 38 36 35 33 31 29
38 39 39 40 41 41 42 42 42 42 42 43 43 43 43 43 44 44 44 43 43 43 44 44 43 43 43 43 43 43 43 43 42 42 41 40 38 36 35 33 31 30 28
42 43 44 44 44 45 45 45 45 46 45 45 45 45 45 45 45 45 45 45 45 45 45 44 44 43 43 43 43 43 42 42 41 40 39 37 36 34 33 31 29 28 27
46 46 47 47 47 48 48 48 48 49 48 48 48 48 48 47 47 46 46 46 46 46 46 45 44 44 44 43 43 42 41 40 39 38 37 35 34 33 31 29 28 26 26
49 50 50 50 50 50 51 51 51 51 50 50 50 49 49 49 48 48 48 47 47 47 46 45 44 44 43 42 41 40 40 39 37 36 35 33 32 31 29 28 26 25 25
52 52 53 53 53 53 53 53 53 53 52 51 51 50 50 49 49 48 48 47 47 47 46 45 44 43 43 42 41 40 39 37 36 35 33 32 30 29 28 27 25 24 24
55 54 55 55 54 54 54 54 54 54 53 52 51 50 50 50 49 48 48 47 46 46 46 45 44 43 42 41 40 39 37 36 34 33 32 30 29 28 27 26 25 24 23
58 57 56 56 56 56 56 55 55 54 53 52 51 50 50 50 49 49 48 47 46 46 45 44 44 43 41 40 39 38 36 35 33 32 30 29 28 27 26 25 24 23 23
Wind_Direction
238 240 242 245 246 247 248 250 252 253 254 256 257 260 262 264 266 267 270 272 276 279 282 286 289 292 294 297 300 302 303 305 307 310 312 314 315 316 316 316 316 315 315
237 240 242 244 245 247 248 249 251 252 254 256 259 260 262 264 266 268 270 272 276 279 282 284 287 290 293 296 298 300 302 304 306 309 311 312 314 315 315 315 314 314 313
237 239 241 243 245 246 247 248 250 252 254 257 259 261 263 265 267 268 269 272 275 278 281 284 286 289 292 294 297 299 301 303 305 307 310 311 312 314 314 313 312 312 311
237 238 240 242 245 246 247 248 250 251 254 257 259 261 263 265 267 268 270 272 275 278 281 283 286 288 290 293 296 298 299 301 304 306 308 310 311 312 312 311 311 309 308
235 237 239 242 244 245 246 248 250 252 255 258 259 260 262 265 267 269 271 274 276 278 280 283 285 288 290 292 295 297 298 300 303 305 307 308 309 310 310 309 308 307 306
235 237 239 242 243 244 246 249 250 253 256 258 259 260 262 264 266 269 272 275 277 278 280 282 284 287 290 293 295 296 298 300 302 304 306 307 308 309 308 307 306 305 304
237 239 240 244 245 246 249 250 251 254 257 259 260 261 263 265 267 269 272 275 276 278 280 282 284 287 290 292 294 296 298 299 301 303 305 306 307 307 306 305 304 304 302
239 241 243 245 247 249 251 252 252 254 257 259 261 263 264 265 267 269 272 273 275 277 279 282 284 287 290 292 294 297 299 300 301 303 304 305 305 305 305 304 303 302 301
238 241 243 245 247 250 251 253 255 255 258 260 262 263 264 266 267 269 271 273 276 278 280 281 283 287 289 292 294 296 298 300 301 303 304 304 304 304 303 302 301 300 299
238 241 242 244 246 250 252 253 256 257 259 260 262 263 264 266 267 268 270 272 274 277 279 281 284 287 289 292 294 296 298 300 301 302 302 302 302 302 301 300 300 298 296
239 241 243 245 248 251 252 253 255 256 258 260 262 261 263 266 268 269 269 271 273 275 277 280 284 287 289 292 294 296 298 299 300 301 301 301 301 300 299 299 298 297 295
242 243 245 248 251 253 254 254 254 256 257 260 261 260 262 265 268 268 268 270 273 275 278 280 283 286 288 291 294 296 298 299 299 299 299 299 299 298 298 297 297 295 293
246 248 249 250 251 252 254 256 256 257 260 260 261 262 264 265 267 268 270 271 273 275 277 280 282 285 288 291 294 296 297 298 298 298 298 298 297 297 297 296 295 293 291
248 249 249 250 251 253 254 254 255 257 259 260 261 262 265 266 266 268 270 272 273 275 277 280 282 285 288 291 294 296 297 297 297 297 296 297 297 297 297 296 294 291 289
251 252 252 252 253 255 256 257 257 259 259 260 262 262 262 263 265 268 270 270 272 274 276 279 282 286 289 291 293 294 295 295 296 295 296 296 296 297 296 295 292 289 286
258 259 258 258 257 258 260 261 261 260 259 260 262 262 263 263 267 269 270 270 272 275 277 279 282 285 287 290 291 293 293 294 294 294 295 295 296 296 295 294 290 288 285
259 259 258 259 260 260 261 261 261 261 262 263 263 264 265 267 267 267 269 270 272 275 278 280 282 284 287 288 290 291 291 292 292 293 294 295 295 295 294 292 290 287 284
262 261 261 261 261 261 260 261 262 262 263 263 263 263 264 265 265 266 269 271 273 276 278 280 282 283 285 286 288 289 290 291 291 292 293 293 294 293 292 290 288 285 282
266 265 264 262 261 261 260 260 262 262 262 262 262 261 261 263 265 267 270 272 273 275 277 278 280 281 283 284 286 287 289 289 290 291 291 292 292 292 291 289 286 284 281
269 267 266 265 263 262 261 260 261 262 262 262 262 263 264 265 267 269 270 271 273 274 276 277 278 279 281 282 284 286 287 288 289 290 290 291 290 290 289 287 285 282 278
270 270 269 268 267 265 264 263 263 264 264 264 265 265 266 267 268 269 270 270 271 273 274 275 276 277 279 281 282 284 285 287 287 288 288 289 288 288 286 284 282 280 276
272 271 270 268 267 266 266 265 265 265 265 265 265 265 265 266 266 268 268 269 270 271 272 273 274 275 277 279 280 282 284 284 285 286 286 286 286 285 284 282 279 276 273
272 271 270 269 267 266 266 265 264 264 265 265 264 264 265 265 265 266 267 268 268 269 270 271 272 274 275 276 278 280 281 282 282 283 283 284 283 282 281 279 276 274 271
273 271 270 269 268 266 265 264 264 264 264 264 263 263 263 264 264 265 265 266 266 267 268 269 271 272 273 275 277 278 279 279 279 280 281 280 279 279 278 275 274 271 267
274 273 271 269 268 267 265 264 263 263 262 262 262 262 262 262 262 263 264 264 265 266 266 267 269 270 272 274 275 276 276 275 277 278 278 277 276 276 275 273 271 268 265
275 274 272 270 268 267 265 264 263 262 261 260 259 259 260 260 260 260 261 263 264 264 265 266 267 269 270 272 272 272 272 273 274 274 274 273 273 273 272 270 267 265 262
Height
5818 5821 5824 5826 5829 5831 5833 5835 5836 5838 5839 5840 5841 5842 5842 5843 5844 5844 5844 5844 5843 5843 5842 5842 5841 5840 5839 5837 5835 5833 5831 5829 5826 5824 5821 5818 5814 5811 5808 5805 5801 5799 5795
5811 5814 5817 5820 5822 5825 5827 5829 5830 5832 5834 5835 5836 5836 5837 5838 5838 5839 5839 5838 5838 5838 5837 5836 5835 5834 5833 5832 5830 5828 5825 5823 5821 5818 5815 5812 5809 5806 5802 5799 5796 5793 5790
5803 5807 5810 5813 5816 5818 5820 5822 5824 5826 5827 5829 5830 5831 5832 5832 5833 5833 5833 5833 5833 5832 5831 5831 5830 5828 5827 5826 5824 5822 5820 5817 5815 5812 5809 5806 5803 5800 5797 5794 5791 5787 5784
5795 5799 5803 5806 5808 5811 5813 5815 5817 5819 5821 5822 5824 5825 5825 5826 5826 5827 5827 5827 5827 5826 5825 5824 5823 5822 5821 5819 5818 5816 5814 5811 5809 5806 5803 5800 5797 5794 5791 5788 5785 5781 5778
5787 5791 5795 5798 5801 5803 5806 5808 5810 5812 5814 5815 5817 5818 5819 5819 5820 5820 5820 5820 5820 5820 5819 5818 5817 5816 5814 5813 5811 5809 5807 5805 5803 5800 5797 5794 5791 5787 5784 5781 5778 5775 5772
5779 5783 5786 5790 5793 5796 5798 5801 5803 5805 5807 5808 5809 5811 5812 5812 5813 5813 5813 5813 5813 5812 5812 5811 5810 5809 5807 5806 5804 5802 5800 5798 5796 5793 5790 5787 5784 5781 5777 5774 5771 5768 5765
5771 5775 5778 5782 5785 5788 5790 5793 5795 5797 5799 5800 5802 5803 5804 5805 5805 5805 5805 5806 5805 5805 5804 5804 5803 5802 5801 5799 5797 5795 5793 5791 5789 5786 5783 5780 5777 5774 5770 5766 5763 5760 5757
5764 5768 5771 5774 5777 5780 5782 5785 5787 5789 5791 5792 5794 5795 5796 5798 5797 5798 5798 5797 5797 5797 5796 5796 5795 5794 5793 5792 5790 5788 5786 5783 5781 5778 5775 5772 5769 5766 5762 5759 5756 5753 5750
5756 5759 5763 5766 5769 5772 5774 5776 5778 5780 5782 5784 5785 5787 5788 5789 5790 5790 5789 5789 5789 5789 5788 5788 5787 5786 5785 5784 5782 5780 5778 5775 5772 5770 5767 5763 5760 5757 5754 5750 5747 5744 5742
5748 5752 5755 5758 5761 5763 5766 5768 5770 5772 5774 5775 5776 5778 5779 5780 5781 5782 5782 5781 5781 5781 5780 5779 5779 5778 5776 5775 5774 5771 5769 5767 5764 5761 5758 5755 5751 5748 5745 5742 5739 5736 5733
5741 5744 5747 5751 5753 5755 5758 5759 5762 5764 5765 5767 5768 5769 5769 5770 5771 5772 5773 5773 5773 5772 5771 5771 5770 5769 5768 5766 5765 5763 5760 5758 5755 5752 5749 5746 5742 5739 5736 5733 5730 5727 5725
5734 5737 5740 5743 5745 5747 5749 5751 5753 5755 5756 5758 5759 5760 5761 5761 5762 5762 5763 5763 5764 5764 5763 5762 5761 5760 5759 5757 5755 5753 5751 5749 5746 5743 5739 5736 5733 5729 5726 5723 5721 5718 5716
5726 5729 5732 5734 5737 5739 5740 5742 5744 5745 5747 5748 5749 5750 5751 5752 5752 5753 5753 5753 5754 5754 5753 5753 5751 5750 5749 5747 5746 5744 5742 5739 5736 5733 5729 5726 5723 5719 5716 5713 5711 5709 5706
5719 5721 5723 5725 5727 5729 5730 5732 5734 5735 5737 5738 5739 5740 5741 5741 5742 5742 5743 5743 5744 5744 5744 5743 5742 5740 5739 5738 5736 5734 5731 5729 5725 5722 5719 5716 5712 5709 5706 5704 5701 5699 5697
5711 5712 5714 5716 5718 5719 5720 5722 5724 5725 5726 5727 5728 5729 5730 5731 5731 5731 5732 5732 5733 5734 5734 5733 5732 5730 5729 5727 5726 5723 5721 5718 5715 5712 5709 5705 5702 5699 5696 5694 5691 5689 5688
5702 5703 5705 5706 5707 5709 5711 5712 5713 5714 5715 5716 5718 5719 5719 5720 5720 5720 5721 5721 5722 5722 5723 5723 5722 5720 5718 5717 5715 5713 5710 5707 5704 5701 5698 5695 5692 5689 5686 5684 5682 5680 5679
5693 5694 5695 5696 5697 5699 5700 5701 5702 5703 5704 5705 5706 5707 5708 5708 5709 5709 5710 5710 5710 5711 5711 5711 5710 5709 5707 5705 5704 5702 5699 5696 5693 5691 5688 5685 5682 5679 5677 5674 5672 5671 5670
5683 5684 5685 5686 5687 5688 5689 5690 5690 5691 5692 5693 5694 5695 5696 5696 5697 5698 5698 5699 5699 5699 5700 5700 5698 5697 5696 5694 5692 5690 5688 5685 5683 5680 5677 5675 5672 5669 5667 5665 5664 5662 5662
5672 5673 5674 5675 5676 5676 5677 5677 5678 5679 5679 5680 5681 5683 5684 5685 5685 5686 5686 5687 5687 5687 5687 5687 5687 5686 5684 5683 5681 5679 5677 5675 5672 5670 5667 5664 5662 5660 5658 5656 5655 5654 5653
5661 5661 5662 5662 5663 5663 5664 5664 5665 5666 5667 5668 5669 5670 5671 5672 5672 5673 5674 5674 5675 5675 5675 5675 5675 5674 5673 5671 5670 5668 5666 5664 5662 5660 5657 5655 5652 5650 5649 5647 5646 5646 5645
5648 5648 5648 5649 5649 5650 5650 5650 5651 5652 5653 5654 5655 5656 5657 5658 5659 5660 5661 5661 5662 5662 5662 5662 5662 5662 5661 5660 5659 5657 5655 5653 5651 5649 5647 5645 5643 5641 5640 5639 5638 5638 5637
5633 5633 5634 5634 5634 5635 5635 5635 5636 5637 5638 5639 5640 5641 5643 5644 5645 5646 5647 5648 5648 5649 5650 5650 5650 5650 5649 5648 5647 5646 5644 5643 5641 5639 5638 5636 5634 5633 5632 5631 5630 5630 5630
5618 5618 5618 5618 5618 5619 5619 5619 5620 5621 5623 5624 5625 5627 5628 5629 5630 5631 5632 5634 5635 5636 5637 5637 5638 5637 5637 5636 5635 5634 5633 5632 5630 5629 5628 5626 5625 5624 5624 5623 5623 5622 5623
5600 5600 5600 5601 5601 5602 5602 5602 5603 5605 5606 5608 5610 5611 5612 5614 5615 5617 5618 5619 5621 5622 5623 5624 5625 5625 5625 5624 5624 5623 5623 5621 5620 5620 5618 5618 5617 5616 5615 5615 5615 5615 5616
5582 5582 5582 5582 5583 5583 5583 5584 5586 5587 5589 5591 5593 5595 5597 5599 5600 5602 5604 5606 5607 5608 5609 5611 5612 5612 5613 5613 5612 5612 5612 5611 5610 5610 5609 5609 5608 5608 5607 5607 5608 5608 5609
5562 5562 5562 5562 5563 5564 5565 5566 5567 5569 5572 5574 5576 5578 5580 5583 5585 5587 5590 5592 5594 5595 5596 5598 5599 5600 5600 5601 5601 5601 5601 5601 5600 5600 5600 5600 5600 5600 5600 5600 5600 5601 5601